Hourly Data Report for May 31, 2012

All times are specified in Local Standard Time (LST). Add 1 hour to adjust for Daylight Saving Time where and when it is observed.

DEER LAKE A
NEWFOUNDLAND

49°12'33.000" N
57°23'40.000" W
21.90 m
8401502
71809
YDF

Download Data

Hourly Data (May 2012)
Hourly Data Report for May 31, 2012
Temp Definition
°C
Dew Point Temp Definition
°C
Rel Hum Definition
%
Wind Dir Definition
10's deg

Wind Spd Definition
km/h
Visibility Definition
km
Stn Press Definition
kPa
Hmdx Definition


Wind Chill Definition


Weather Definition


TIME
00:30 Legend Double Dagger 5.4 3.3 86 3 17 10.0 100.93     LegendNANA
01:30 Legend Double Dagger 5.1 3.1 87 5 17 10.0 100.92     LegendNANA
02:30 Legend Double Dagger 5.1 3.3 88 4 16 10.0 100.91     Cloudy
03:30 Legend Double Dagger 4.9 3.2 89 2 13 10.0 100.91     LegendNANA
04:30 Legend Double Dagger 4.7 3.2 90 3 14 10.0 100.90     LegendNANA
05:30 Legend Double Dagger 4.9 3.2 89 5 14 10.0 100.94     Cloudy
06:30 Legend Double Dagger 5.1 3.1 87 4 14 10.0 100.96     LegendNANA
07:30 Legend Double Dagger 5.6 3.0 83 4 15 10.0 100.99     LegendNANA
08:30 Legend Double Dagger 6.6 3.4 80 4 11 10.0 101.00     Cloudy
09:30 Legend Double Dagger 7.4 3.3 75 3 13 10.0 100.99     LegendNANA
10:30 Legend Double Dagger 8.3 4.2 75 4 8 10.0 100.99     LegendNANA
11:30 Legend Double Dagger 9.3 4.3 71 2 14 10.0 100.94     Cloudy
12:30 Legend Double Dagger 11.7 4.7 62 4 12 10.0 100.87     LegendNANA
13:30 Legend Double Dagger 12.5 5.0 60 34 5 10.0 100.84     LegendNANA
14:30 Legend Double Dagger 13.6 4.8 55 35 8 10.0 100.81     Cloudy
15:30 Legend Double Dagger 13.9 5.6 57 17 10 10.0 100.80     LegendNANA
16:30 Legend Double Dagger 13.6 5.6 58 20 8 10.0 100.76     LegendNANA
17:30 Legend Double Dagger 13.6 4.5 54 18 6 10.0 100.79     Cloudy
18:30 Legend Double Dagger 13.2 6.1 62   0 10.0 100.78     LegendNANA
19:30 Legend Double Dagger 12.4 6.9 69   0 10.0 100.83     LegendNANA
20:30 Legend Double Dagger 10.6 6.0 73 4 16 10.0 100.89     Cloudy
21:30 Legend Double Dagger 9.2 5.6 78 3 12 10.0 100.93     LegendNANA
22:30 Legend Double Dagger 7.9 5.2 83 4 14 10.0 100.92     LegendNANA
23:30 Legend Double Dagger 7.2 5.0 86 5 15 10.0 100.92     Mostly Cloudy

Notes on Data Quality.

Legend

  • E = Estimated
  • M = Missing
  • NA = Not Available
  • ‡ = Partner data that is not subject to review by the National Climate Archives
Date modified: